Location: Ash Swamp
(41.5170°N, 74.6157°W)
Time: 17:27:15
(UTC+00:00)

Cosmos 2061 Rocket - Pass Details

Date: 14 July 2020
Orbit: 965 x 1014 km, 82.9° (Epoch: 04 August)

Event Time Altitude Azimuth Distance (km) Brightness Sun altitude
Exits shadow 06:56:51 41° 203° (SSW) 1,409 4.3 -21.7°
Maximum altitude 06:59:13 74° 278° (W) 1,034 4.0 -21.5°
Drops below altitude 10° 07:05:32 10° 4° (N) 2,751 7.3 -20.9°
Sets 07:08:03 0° 6° (N) 3,696 8.2 -20.7°
